Location: Asheville, NC
(35.6000°N, 82.5500°W)
Time: 16:40:06
(UTC-05:00)

Vanguard 2 - Pass Details

Date: 13 December 2017
Orbit: 552 x 2940 km, 32.9° (Epoch: 17 January)

Event Time Altitude Azimuth Distance (km) Brightness Sun altitude
Rises 13:49:30 0° 219° (SW) 5,580 13.1 27.9°
Reaches altitude 10° 13:54:28 10° 209° (SSW) 4,133 13.0 27.5°
Maximum altitude 14:02:26 26° 158° (SSE) 2,338 10.9 26.8°
Drops below altitude 10° 14:07:55 10° 104° (ESE) 2,759 10.3 26.3°
Sets 14:10:30 0° 91° (E) 3,446 10.6 26.1°
